2026-027F

Last updated on Sat Mar 14 2026 00:02:07 GMT+0000 (Coordinated Universal Time)

1 67751U 26027F 26071.79210972 .00003881 00000+0 19460-3 0 9998 2 67751 97.4916 200.8018 0009239 190.5872 169.5169 15.17898571 4337
UTC large
Height (km)
Speed (km/s)
/
Latitude / Longitude
Inclination (degrees)
Orbital Period (minutes)
Azimuth
Elevation
Range (km)
Doppler Factor

Next 0 passes for location: London (51.5072 / 0.1276)

Sorry there are no passes over London.